"Time","Temp","Dewpoint","Humidity","Pressure","Direction","Speed","Gust","Precip","PrecipRate"
"00:04:58","63","50.3","63.3","30.30","156","1.5","4","0.00","0.00"
"00:09:58","62.8","50.3","63.6","30.30","145","1.2","4","0.00","0.00"
"00:14:57","62.7","50.5","64.5","30.30","143","0.3","3.5","0.00","0.00"
"00:19:58","62.4","50.5","65","30.30","144","1","3.5","0.00","0.00"
"00:24:56","62.2","50.3","65","30.30","143","0.9","3.5","0.00","0.00"
"00:29:57","62.2","50.4","65.5","30.30","148","0.5","3.5","0.00","0.00"
"00:34:59","62","50.4","65.8","30.30","149","0.2","2.3","0.00","0.00"
"00:39:57","61.8","50.6","66.6","30.30","149","0","0","0.00","0.00"
"00:44:59","61.7","50.6","67","30.30","149","0","0","0.00","0.00"
"00:49:56","61.5","50.4","67","30.30","149","0","0","0.00","0.00"
"00:54:58","61.4","50.5","67.3","30.30","149","0","0","0.00","0.00"
"00:59:59","61.3","50.9","68.6","30.30","149","0","0","0.00","0.00"
"01:04:56","61.2","50.7","68.4","30.30","149","0.1","2.3","0.00","0.00"
"01:09:58","61.1","50.5","68","30.30","148","0.4","3.5","0.00","0.00"
"01:14:56","61.1","50.5","68","30.30","148","0.1","1.2","0.00","0.00"
"01:19:57","61.1","50.4","67.7","30.29","149","0","1.2","0.00","0.00"
"01:24:59","61.1","50.5","68","30.29","149","0","0","0.00","0.00"
"01:29:57","61","50.5","68.1","30.29","148","0","0","0.00","0.00"
"01:34:58","61","50.4","68","30.29","149","0","1","0.00","0.00"
"01:39:57","61","50.2","67.5","30.29","151","0.3","3","0.00","0.00"
"01:44:59","61","50.1","67.3","30.29","142","1.1","4","0.00","0.00"
"01:49:56","61","50.3","67.8","30.29","141","1.4","3.5","0.00","0.00"
"01:54:58","61","50.2","67.5","30.29","140","1.1","4","0.00","0.00"
"01:59:59","61","50.2","67.5","30.29","163","1.4","3.5","0.00","0.00"
"02:04:56","60.9","50.3","68","30.28","173","0.9","4","0.00","0.00"
"02:09:58","60.9","50.2","67.7","30.28","171","0.7","3.5","0.00","0.00"
"02:14:58","60.9","50.3","68","30.28","170","0.7","3.5","0.00","0.00"
"02:19:56","60.8","50.2","68","30.28","169","0","0","0.00","0.00"
"02:24:57","60.8","50.2","68.1","30.28","169","0","0","0.00","0.00"
"02:29:58","60.7","50.3","68.5","30.28","169","0","1.2","0.00","0.00"
"02:34:56","60.6","50.1","68.4","30.28","167","0","0","0.00","0.00"
"02:39:58","60.5","50.1","68.5","30.28","167","0","0","0.00","0.00"
"02:44:56","60.5","50.3","69","30.28","167","0","0","0.00","0.00"
"02:49:57","60.5","50.4","69.3","30.28","166","0","0","0.00","0.00"
"02:54:56","60.4","50.3","69.2","30.28","165","0","0","0.00","0.00"
"02:59:57","60.4","50.3","69.3","30.28","163","0","0","0.00","0.00"
"03:04:59","60.4","50.5","69.7","30.27","163","0","0","0.00","0.00"
"03:09:57","60.4","50.5","69.8","30.27","163","0","0","0.00","0.00"
"03:14:56","60.4","50.8","70.5","30.27","163","0","0","0.00","0.00"
"03:19:58","60.3","50.8","70.7","30.27","163","0","0","0.00","0.00"
"03:24:59","60.2","50.7","70.6","30.27","163","0","0","0.00","0.00"
"03:29:57","60.1","50.9","71.5","30.27","163","0","0","0.00","0.00"
"03:34:58","60.1","51","72.1","30.27","163","0","0","0.00","0.00"
"03:39:57","60","51.2","72.6","30.27","163","0","0","0.00","0.00"
"03:44:59","60","50.9","72","30.27","163","0","0","0.00","0.00"
"03:49:56","59.9","50.8","72","30.26","163","0","0","0.00","0.00"
"03:54:57","59.9","50.8","72","30.26","163","0","0","0.00","0.00"
"03:59:59","59.8","51","72.8","30.26","157","0","0","0.00","0.00"
"04:04:52","59.8","51.1","73","30.26","157","0","0","0.00","0.00"
"04:09:58","59.8","51.1","73","30.26","157","0","0","0.00","0.00"
"04:14:57","59.8","51.2","73.3","30.26","157","0","1","0.00","0.00"
"04:19:58","59.7","51","73","30.26","155","0","1.2","0.00","0.00"
"04:24:56","59.7","51","73.2","30.26","133","0","1.2","0.00","0.00"
"04:29:57","59.6","51.1","73.5","30.26","147","0","1.2","0.00","0.00"
"04:34:59","59.6","51.3","73.8","30.26","147","0","1.2","0.00","0.00"
"04:39:58","59.6","51.3","74","30.26","148","0","0","0.00","0.00"
"04:44:59","59.6","51.3","74","30.26","165","0","2.3","0.00","0.00"
"04:49:57","59.6","51.5","74.5","30.26","169","0","0","0.00","0.00"
"04:54:59","59.6","51.4","74.4","30.26","167","0","0","0.00","0.00"
"04:59:56","59.6","51.7","75","30.26","168","0","0","0.00","0.00"
"05:04:57","59.6","51.7","75","30.26","168","0","0","0.00","0.00"
"05:09:59","59.6","51.8","75.4","30.26","168","0","0","0.00","0.00"
"05:14:58","59.6","52.3","76.6","30.27","168","0","0","0.00","0.00"
"05:19:59","59.6","52.3","76.8","30.27","168","0","0","0.00","0.00"
"05:24:57","59.6","52.3","76.7","30.27","168","0","0","0.00","0.00"
"05:29:58","59.5","52.4","77.3","30.27","168","0","0","0.00","0.00"
"05:34:56","59.5","52.3","77.2","30.27","168","0","0","0.00","0.00"
"05:39:59","59.5","52.3","77.2","30.27","168","0","0","0.00","0.00"
"05:44:56","59.5","52.3","77.2","30.27","168","0","0","0.00","0.00"
"05:49:58","59.4","52.2","77","30.27","168","0","0","0.00","0.00"
"05:54:56","59.5","52.5","77.7","30.27","168","0","0","0.00","0.00"
"05:59:58","59.4","52.5","78","30.27","168","0","0","0.00","0.00"
"06:04:59","59.4","52.6","78.1","30.27","168","0","0","0.00","0.00"
"06:09:58","59.4","53","79.5","30.27","153","0","0","0.00","0.00"
"06:14:57","59.4","52.8","78.8","30.27","153","0","0","0.00","0.00"
"06:19:58","59.3","52.8","79","30.27","153","0","0","0.00","0.00"
"06:24:56","59.3","52.8","79","30.27","152","0","1.2","0.00","0.00"
"06:29:57","59.3","52.8","79","30.27","144","0","1.2","0.00","0.00"
"06:34:58","59.3","52.9","79.2","30.27","119","0.4","5","0.00","0.00"
"06:39:56","59.3","53.1","80","30.27","120","0.1","2.3","0.00","0.00"
"06:44:58","59.3","53.5","81","30.27","123","0","0","0.00","0.00"
"06:49:59","59.4","53.8","82","30.27","123","0","0","0.00","0.00"
"06:54:56","59.4","53.9","82","30.27","123","0","0","0.00","0.00"
"06:59:57","59.4","53.8","81.4","30.27","123","0","0","0.00","0.00"
"07:04:58","59.4","53.6","81","30.27","122","0","1","0.00","0.00"
"07:09:56","59.4","53.6","81","30.27","122","0","0","0.00","0.00"
"07:14:59","59.7","53.9","81","30.27","121","0.2","4","0.00","0.00"
"07:19:56","59.9","54.1","80.9","30.27","131","1","4","0.00","0.00"
"07:24:57","60.2","54.1","80.5","30.27","130","0.8","5","0.00","0.00"
"07:29:58","60.5","54.4","80.3","30.27","123","0.9","3.5","0.00","0.00"
"07:34:59","60.8","54.7","80.4","30.27","114","1.4","5","0.00","0.00"
"07:39:57","60.9","54.3","79","30.27","133","2.6","6","0.00","0.00"
"07:44:59","60.8","54.5","79.5","30.27","171","2.3","6","0.00","0.00"
"07:49:56","60.7","54.6","80.2","30.27","152","1.9","5","0.00","0.00"
"07:54:56","60.7","54.6","80.3","30.27","121","2.5","7","0.00","0.00"
"07:59:58","60.8","54.9","81","30.27","128","2","5","0.00","0.00"
"08:04:59","61","55.2","81.2","30.27","117","2","6","0.00","0.00"
"08:09:28","61.3","55.4","80.9","30.27","132","2.5","7","0.00","0.00"
"08:14:59","61.5","55.4","80.5","30.27","151","2.7","5.8","0.00","0.00"
"08:19:58","61.7","55.8","81","30.27","131","2.3","5","0.00","0.00"
"08:24:59","62.3","56.3","80.8","30.27","125","2.1","5","0.00","0.00"
"08:29:56","62.6","56.2","79.7","30.27","110","1.9","4.6","0.00","0.00"
"08:34:57","62.6","56.1","79.3","30.27","109","1.3","4","0.00","0.00"
"08:39:59","62.5","56.1","79.6","30.27","153","1.3","5","0.00","0.00"
"08:44:56","62.4","56.2","80.2","30.27","153","1.7","6","0.00","0.00"
"08:49:57","62.5","56.6","80.8","30.27","157","0.3","3.5","0.00","0.00"
"08:54:58","62.6","56.6","80.8","30.27","157","0","2.3","0.00","0.00"
"08:59:56","62.7","56.9","81.2","30.27","157","0","0","0.00","0.00"
"09:04:57","62.8","56.9","81.1","30.27","158","0","0","0.00","0.00"
"09:09:59","62.7","56.9","81.2","30.27","158","0","1.2","0.00","0.00"
"09:14:58","62.6","57","82","30.27","189","0.7","4","0.00","0.00"
"09:19:59","62.6","57","82","30.27","185","0.8","3.5","0.00","0.00"
"09:24:56","62.6","57.2","82.3","30.27","185","0","0","0.00","0.00"
"09:29:58","62.9","57.5","82.6","30.27","133","1.8","4","0.00","0.00"
"09:34:59","63.1","57.5","82.1","30.27","125","0.9","3.5","0.00","0.00"
"09:39:57","63.3","57.7","82.2","30.27","125","0.1","2.3","0.00","0.00"
"09:44:58","63.4","57.7","81.8","30.27","122","0.1","1.2","0.00","0.00"
"09:49:59","63.4","57.9","82.3","30.27","113","0.3","2.3","0.00","0.00"
"09:54:56","63.6","58.1","82.4","30.27","118","1.1","4","0.00","0.00"
"09:59:57","63.8","58.2","82.2","30.27","181","1.6","4","0.00","0.00"
"10:04:57","64","58.5","82.5","30.26","163","1.2","3.5","0.00","0.00"
"10:09:56","64.2","58.9","83","30.26","161","0.7","4","0.00","0.00"
"10:14:58","64.6","59.3","82.9","30.26","121","0.6","3.5","0.00","0.00"
"10:19:59","64.8","59.2","82","30.26","177","1.9","4","0.00","0.00"
"10:24:56","64.9","59.3","82","30.26","118","1.8","4","0.00","0.00"
"10:29:58","65","59.6","82.8","30.26","120","1.6","4.6","0.00","0.00"
"10:34:59","65.1","59.7","82.7","30.25","129","1","4","0.00","0.00"
"10:39:57","65.3","60.2","83.8","30.25","174","1","3.5","0.00","0.00"
"10:44:59","65.7","60.6","83.9","30.25","156","1.6","5","0.00","0.00"
"10:49:56","65.8","60.5","82.9","30.25","140","1","3.5","0.00","0.00"
"10:54:57","65.8","60.4","82.6","30.25","173","2","5","0.00","0.00"
"10:59:58","65.8","60.4","82.8","30.25","192","0.9","4","0.00","0.00"
"11:04:59","65.8","60.4","82.8","30.25","185","0.3","2.3","0.00","0.00"
"11:09:57","65.7","60.3","82.7","30.25","149","1.4","4","0.00","0.00"
"11:14:59","65.8","60.6","83.3","30.25","137","2.2","4","0.00","0.00"
"11:19:56","65.9","60.7","83.3","30.25","122","2.6","5","0.00","0.00"
"11:24:57","65.9","60.7","83.1","30.25","122","2","10.4","0.00","0.00"
"11:29:58","66.1","60.9","83.5","30.25","146","2.3","6","0.00","0.00"
"11:34:58","66.1","61","83.8","30.25","138","2.7","6","0.00","0.00"
"11:39:56","66","61.1","84.2","30.25","167","2.7","5","0.00","0.00"
"11:44:58","66.2","61.6","85","30.25","146","1.4","4","0.00","0.00"
"11:49:59","66.4","61.6","84.7","30.25","130","1.5","5","0.00","0.00"
"11:54:56","66.4","61.8","85.2","30.25","153","2.2","6","0.00","0.00"
"11:59:57","66.4","61.6","84.7","30.25","110","1.9","6","0.00","0.00"
"12:04:58","66.1","61.8","85.9","30.24","116","1.4","5","0.00","0.00"
"12:09:56","65.9","61.7","86.4","30.24","124","2.6","6","0.00","0.00"
"12:14:59","65.9","62","87.2","30.24","177","1.4","4.6","0.00","0.00"
"12:19:56","66.1","62.1","87","30.24","151","2.5","6","0.00","0.00"
"12:24:57","66.3","62.3","86.8","30.24","162","3","7","0.00","0.00"
"12:29:58","66.6","62.4","86.2","30.24","131","2.4","7","0.00","0.00"
"12:34:59","66.9","62.7","86.2","30.23","166","2.9","6","0.00","0.00"
"12:39:57","67.1","62.7","85.6","30.23","181","3.1","7","0.00","0.00"
"12:44:57","67.1","62.6","85.3","30.23","189","3.5","7","0.00","0.00"
"12:49:59","67.2","62.8","85.6","30.23","184","2.4","6.9","0.00","0.00"
"12:54:56","67.3","63","86.1","30.23","161","2.3","7","0.00","0.00"
"12:59:57","67.4","62.8","85.4","30.23","146","2.3","6","0.00","0.00"
"13:04:58","67.5","63","85.3","30.22","162","2.8","7","0.00","0.00"
"13:09:55","67.8","63.3","85.3","30.22","168","3","11","0.00","0.00"
"13:14:58","68.2","63.5","84.8","30.22","156","3.2","11.5","0.00","0.00"
"13:19:59","68.5","63.3","83.6","30.22","149","3.6","9.2","0.00","0.00"
"13:24:56","68.2","63","83.5","30.22","176","4.2","9.2","0.00","0.00"
"13:29:58","67.9","63","84.6","30.22","187","3.9","7","0.00","0.00"
"13:34:59","67.6","62.9","85","30.21","190","3.8","8.1","0.00","0.00"
"13:39:57","67.4","62.8","85.2","30.21","164","1.4","5.8","0.00","0.00"
"13:44:59","67.4","62.9","85.4","30.21","124","1.9","5","0.00","0.00"
"13:49:56","67.4","63.1","86","30.20","167","2.6","5","0.00","0.00"
"13:54:57","67.3","63","86","30.20","170","2.8","6","0.00","0.00"
"13:59:57","67.3","63.2","86.7","30.20","178","3","7","0.00","0.00"
"14:04:58","67.4","63.2","86.5","30.20","159","3.3","6","0.00","0.00"
"14:09:59","67.3","63.2","86.5","30.20","180","3","7","0.00","0.00"
"14:14:59","67.4","63.5","87.2","30.20","168","2.7","9.2","0.00","0.00"
"14:19:56","67.5","63.6","87.4","30.19","193","3.4","9.2","0.00","0.00"
"14:24:57","67.4","63.6","87.6","30.19","187","2.6","6","0.00","0.00"
"14:29:57","67.4","63.8","88.4","30.19","168","2.3","6","0.00","0.00"
"14:34:59","67.4","63.7","88","30.19","155","2.1","5.8","0.00","0.00"
"14:39:57","67.4","64","89","30.19","176","2.3","5","0.00","0.00"
"14:44:58","67.5","64","88.9","30.19","138","1.9","5","0.00","0.00"
"14:49:59","67.4","64","89","30.18","178","2.4","4","0.00","0.00"
"14:54:56","67.3","63.9","88.7","30.18","122","2.3","5","0.00","0.00"
"14:59:57","67.3","64.1","89.3","30.18","123","1.4","3.5","0.00","0.00"
"15:04:58","67.6","64.2","88.9","30.16","136","1.6","4","0.00","0.00"
"15:09:56","67.7","64.2","88.5","30.16","125","0.8","4","0.00","0.00"
"15:14:58","67.8","64.1","88","30.16","119","2.2","5","0.00","0.00"
"15:19:59","68.1","64.4","88","30.16","142","2","4","0.00","0.00"
"15:24:56","68.3","64.6","88","30.16","154","1.5","4","0.00","0.00"
"15:29:57","68.5","64.7","87.6","30.16","156","2.6","10.4","0.00","0.00"
"15:34:58","68.5","64.5","87","30.15","165","2.2","5","0.00","0.00"
"15:39:56","68.6","64.5","86.8","30.15","144","2.3","6","0.00","0.00"
"15:44:57","68.5","64.5","87","30.15","148","2.9","7","0.00","0.00"
"15:49:58","68.5","64.6","87.5","30.14","180","2.5","5","0.00","0.00"
"15:54:59","68.5","64.8","88","30.14","163","2.6","6","0.00","0.00"
"15:59:59","68.5","64.8","88","30.14","149","2.8","6","0.00","0.00"
"16:04:56","68.4","64.8","88.4","30.14","141","2.3","9","0.00","0.00"
"16:09:58","68.3","64.9","89","30.14","119","2.9","9.2","0.00","0.00"
"16:14:56","68.3","64.9","89","30.14","89","1.6","4","0.00","0.00"
"16:19:57","68.6","65.5","90","30.13","149","1.8","4","0.00","0.00"
"16:24:58","69","65.5","88.9","30.13","146","2.1","5","0.00","0.00"
"16:29:59","69.2","65.6","88.2","30.13","141","1.8","5","0.00","0.00"
"16:34:57","69.4","65.7","88.2","30.13","144","1.8","4","0.00","0.00"
"16:39:59","69.5","65.6","87.5","30.13","138","2.2","6","0.00","0.00"
"16:44:56","69.4","65.6","87.4","30.13","149","2.9","7","0.00","0.00"
"16:49:57","69.3","65.3","87","30.12","160","3.2","7","0.00","0.00"
"16:54:58","69.3","65.4","87.5","30.12","136","1.7","5","0.00","0.00"
"16:59:59","69.3","65.6","88","30.12","130","1.3","5","0.00","0.00"
"17:04:56","69.4","65.5","87.4","30.12","119","2.2","7","0.00","0.00"
"17:09:58","69.4","65.4","87.2","30.12","138","1.9","5","0.00","0.00"
"17:14:56","69.3","65.3","87","30.12","153","1.6","4","0.00","0.00"
"17:19:57","69.3","65.5","87.7","30.12","161","1.6","3.5","0.00","0.00"
"17:24:58","69.3","65.5","87.8","30.12","163","1.8","4","0.00","0.00"
"17:29:59","69.2","65.2","87","30.12","166","2.4","5","0.00","0.00"
"17:34:56","69.2","65.4","87.6","30.12","164","1.1","3.5","0.00","0.00"
"17:39:59","69.2","65.5","88","30.12","160","0.1","2","0.00","0.00"
"17:44:56","69.2","65.5","88","30.12","185","1.5","5","0.00","0.00"
"17:49:57","69.2","65.5","88","30.12","185","0.7","3.5","0.00","0.00"
"17:54:58","69.2","65.5","88","30.12","185","0.7","3","0.00","0.00"
"17:59:59","69.3","65.6","88","30.12","185","1.5","4","0.00","0.00"
"18:04:57","69.3","65.6","88","30.12","184","1.8","4","0.00","0.00"
"18:09:58","69.3","65.6","88","30.12","183","1.4","3.5","0.00","0.00"
"18:14:56","69.2","65.5","88","30.12","165","1.6","5","0.00","0.00"
"18:19:58","69.2","65.5","88","30.11","154","1.4","4.6","0.00","0.00"
"18:24:59","69.2","65.5","88","30.11","155","1.3","3.5","0.00","0.00"
"18:29:56","69.2","65.5","88","30.11","153","1.4","3.5","0.00","0.00"
"18:34:58","69.2","65.5","88","30.11","153","0.9","3","0.00","0.00"
"18:39:56","69.2","65.5","88","30.11","157","1.9","5","0.00","0.00"
"18:44:57","69.2","65.5","88","30.11","145","1.9","5","0.00","0.00"
"18:49:58","69.3","65.6","88.1","30.10","165","1.1","4","0.00","0.00"
"18:54:59","69.3","65.7","88.2","30.10","145","1.3","4","0.00","0.00"
"18:59:56","69.4","65.7","88","30.10","126","0.5","3","0.00","0.00"
"19:04:57","69.4","65.7","88","30.10","131","1.4","6","0.00","0.00"
"19:09:59","69.4","65.7","88","30.10","135","1.3","4","0.00","0.00"
"19:14:57","69.4","65.7","88","30.10","129","1.6","6","0.00","0.00"
"19:19:59","69.4","65.7","88","30.09","163","1.7","5.8","0.00","0.00"
"19:24:56","69.3","65.6","88","30.09","153","2.7","6","0.00","0.00"
"19:29:57","69.3","65.6","88","30.09","143","2.4","6","0.00","0.00"
"19:34:58","69.2","65.6","88.2","30.08","117","2.1","5","0.00","0.00"
"19:39:56","69.1","65.7","89","30.08","125","2.2","7","0.00","0.00"
"19:44:57","69","65.6","89","30.09","153","2.8","9.2","0.00","0.00"
"19:49:58","68.9","65.5","89","30.09","169","2.3","5","0.00","0.00"
